カタログに戻る

COSMOS 2251 DEB

運用中LEO
NORAD 34008·DEBRIS·🇷🇺 Russia

打ち上げ Jun 16, 1993 から Plesetsk Cosmodrome

Loading…

次のパス (今後24時間)

TLE

最新Source: Space-Track

元期: Sep 14, 2026, 12:02 UTC

1 34008U 93036GT  26257.50178534  .00000164  00000-0  68729-4 0  9998
2 34008  74.0348 186.4882 0022424 119.5598   1.5567 14.33295326919159

AllMySatでCOSMOS 2251 DEBをリアルタイム追跡

Download on the App Store